When you browse on this site, cookies collect data to enhance your experience and personalize the content and advertising you see.
Visit our Privacy Policy to learn more. By continuing to use the site, you agree to this use of cookies and data.

Hourly Weather Kaprun

Today, 7 July, Tuesday

Time Temperature Precipitation Wind Pressure Humidity
00:00 +2°C° 0.2 mm 3 mps 597 mmHg 96%
01:00 +2°C° 0 mm 3 mps 597 mmHg 98%
02:00 +1°C° 0.1 mm 3 mps 597 mmHg 97%
03:00 +2°C° 0.1 mm 2 mps 597 mmHg 96%
04:00 +1°C° 0.1 mm 2 mps 597 mmHg 96%
05:00 +2°C° 0 mm 2 mps 598 mmHg 93%
06:00 +3°C° 0 mm 2 mps 598 mmHg 91%
07:00 +3°C° 0 mm 2 mps 599 mmHg 88%
08:00 +5°C° 0 mm 2 mps 599 mmHg 76%
09:00 +7°C° 0 mm 2 mps 600 mmHg 63%
10:00 +9°C° 0 mm 2 mps 601 mmHg 50%
11:00 +12°C° 0 mm 2 mps 601 mmHg 46%
12:00 +13°C° 0 mm 2 mps 601 mmHg 41%
13:00 +14°C° 0 mm 2 mps 602 mmHg 37%
14:00 +14°C° 0 mm 2 mps 602 mmHg 37%
15:00 +14°C° 0 mm 2 mps 601 mmHg 38%
16:00 +15°C° 0 mm 2 mps 601 mmHg 38%
17:00 +13°C° 0 mm 2 mps 601 mmHg 49%
18:00 +12°C° 0 mm 2 mps 600 mmHg 59%
19:00 +10°C° 0 mm 1 mps 600 mmHg 69%
20:00 +8°C° 0 mm 1 mps 599 mmHg 76%
21:00 +6°C° 0 mm 1 mps 598 mmHg 83%
22:00 +3°C° 0 mm 0 mps 598 mmHg 91%
23:00 +3°C° 0 mm 0 mps 598 mmHg 91%

Tomorrow, 8 July, Wednesday

Time Temperature Precipitation Wind Pressure Humidity
00:00 +3°C° 0 mm 0 mps 598 mmHg 91%
01:00 +3°C° 0 mm 0 mps 598 mmHg 91%
02:00 +3°C° 0 mm 0 mps 597 mmHg 91%
03:00 +3°C° 0 mm 0 mps 597 mmHg 91%
04:00 +2°C° 0 mm 0 mps 597 mmHg 91%
05:00 +5°C° 0 mm 0 mps 598 mmHg 83%
06:00 +7°C° 0 mm 0 mps 599 mmHg 75%
07:00 +9°C° 0 mm 0 mps 600 mmHg 67%
08:00 +12°C° 0 mm 1 mps 601 mmHg 60%
09:00 +14°C° 0 mm 1 mps 602 mmHg 54%
10:00 +16°C° 0 mm 1 mps 602 mmHg 47%
11:00 +18°C° 0 mm 1 mps 603 mmHg 45%
12:00 +18°C° 0 mm 1 mps 603 mmHg 44%
13:00 +18°C° 0 mm 2 mps 603 mmHg 42%
14:00 +18°C° 0 mm 2 mps 603 mmHg 46%
15:00 +17°C° 0 mm 2 mps 602 mmHg 49%
16:00 +17°C° 0 mm 2 mps 602 mmHg 53%
17:00 +16°C° 0.1 mm 2 mps 602 mmHg 62%
18:00 +14°C° 0.1 mm 2 mps 601 mmHg 71%
19:00 +12°C° 0.1 mm 2 mps 601 mmHg 80%
20:00 +11°C° 0 mm 1 mps 601 mmHg 85%
21:00 +10°C° 0 mm 1 mps 600 mmHg 90%
22:00 +8°C° 0 mm 1 mps 600 mmHg 95%
23:00 +8°C° 0 mm 1 mps 600 mmHg 95%

Day after tomorrow, 9 July, Thursday

Time Temperature Precipitation Wind Pressure Humidity
00:00 +7°C° 0 mm 1 mps 600 mmHg 95%
01:00 +7°C° 0 mm 1 mps 600 mmHg 94%
02:00 +7°C° 0 mm 1 mps 600 mmHg 94%
03:00 +7°C° 0 mm 1 mps 599 mmHg 93%
04:00 +6°C° 0 mm 1 mps 599 mmHg 93%
05:00 +7°C° 0 mm 0 mps 600 mmHg 87%
06:00 +9°C° 0 mm 0 mps 601 mmHg 82%
07:00 +11°C° 0 mm 0 mps 602 mmHg 76%
08:00 +13°C° 0 mm 0 mps 603 mmHg 69%
09:00 +15°C° 0 mm 1 mps 603 mmHg 63%
10:00 +18°C° 0 mm 1 mps 604 mmHg 56%
11:00 +18°C° 0.2 mm 1 mps 604 mmHg 55%
12:00 +19°C° 0.2 mm 1 mps 604 mmHg 54%
13:00 +19°C° 0.2 mm 1 mps 604 mmHg 54%
14:00 +19°C° 0.4 mm 1 mps 603 mmHg 56%
15:00 +19°C° 0.4 mm 1 mps 603 mmHg 58%
16:00 +17°C° 0.4 mm 2 mps 603 mmHg 60%
17:00 +16°C° 0.4 mm 1 mps 602 mmHg 68%
18:00 +15°C° 0.4 mm 1 mps 602 mmHg 77%
19:00 +13°C° 0.4 mm 0 mps 602 mmHg 85%
20:00 +12°C° 0.1 mm 1 mps 601 mmHg 87%
21:00 +11°C° 0.1 mm 1 mps 601 mmHg 89%
22:00 +9°C° 0.1 mm 1 mps 600 mmHg 91%
23:00 +9°C° 0 mm 1 mps 600 mmHg 91%

10 July, Friday

Time Temperature Precipitation Wind Pressure Humidity
00:00 +9°C° 0 mm 1 mps 600 mmHg 92%
01:00 +9°C° 0 mm 1 mps 599 mmHg 92%
02:00 +9°C° 0 mm 1 mps 599 mmHg 92%
03:00 +9°C° 0 mm 1 mps 599 mmHg 91%
04:00 +8°C° 0 mm 1 mps 599 mmHg 91%
05:00 +10°C° 0 mm 1 mps 599 mmHg 87%
06:00 +12°C° 0 mm 1 mps 600 mmHg 83%
07:00 +13°C° 0 mm 0 mps 601 mmHg 79%
08:00 +15°C° 0.3 mm 1 mps 601 mmHg 74%
09:00 +16°C° 0.3 mm 1 mps 601 mmHg 69%
10:00 +19°C° 0.3 mm 1 mps 602 mmHg 63%
11:00 +19°C° 0.6 mm 1 mps 601 mmHg 62%
12:00 +20°C° 0.6 mm 1 mps 601 mmHg 61%
13:00 +20°C° 0.6 mm 1 mps 601 mmHg 60%
14:00 +20°C° 0.9 mm 1 mps 601 mmHg 61%
15:00 +19°C° 0.9 mm 1 mps 601 mmHg 63%
16:00 +19°C° 0.9 mm 1 mps 601 mmHg 64%
17:00 +16°C° 2.3 mm 1 mps 600 mmHg 74%
18:00 +14°C° 2.3 mm 1 mps 599 mmHg 84%
19:00 +13°C° 2.3 mm 1 mps 599 mmHg 94%
20:00 +12°C° 3 mm 1 mps 599 mmHg 95%
21:00 +10°C° 3 mm 2 mps 599 mmHg 97%
22:00 +9°C° 3 mm 2 mps 599 mmHg 98%
23:00 +9°C° 2.3 mm 2 mps 599 mmHg 98%

11 July, Saturday

Time Temperature Precipitation Wind Pressure Humidity
00:00 +9°C° 2.3 mm 1 mps 599 mmHg 98%
01:00 +9°C° 2.3 mm 1 mps 599 mmHg 98%
02:00 +9°C° 2.2 mm 1 mps 599 mmHg 98%
03:00 +8°C° 2.2 mm 2 mps 599 mmHg 98%
04:00 +7°C° 2.2 mm 2 mps 599 mmHg 98%
05:00 +7°C° 1.2 mm 2 mps 599 mmHg 98%
06:00 +6°C° 1.2 mm 2 mps 599 mmHg 97%
07:00 +6°C° 1.2 mm 2 mps 599 mmHg 97%
08:00 +6°C° 0.4 mm 2 mps 599 mmHg 95%
09:00 +6°C° 0.4 mm 2 mps 600 mmHg 94%
10:00 +7°C° 0.4 mm 2 mps 600 mmHg 92%
11:00 +8°C° 0.2 mm 2 mps 600 mmHg 89%
12:00 +8°C° 0.2 mm 2 mps 601 mmHg 86%
13:00 +9°C° 0.2 mm 2 mps 601 mmHg 82%
14:00 +9°C° 0.5 mm 2 mps 601 mmHg 84%
15:00 +9°C° 0.5 mm 2 mps 601 mmHg 86%
16:00 +9°C° 0.5 mm 3 mps 601 mmHg 87%
17:00 +8°C° 0.2 mm 2 mps 601 mmHg 88%
18:00 +8°C° 0.2 mm 2 mps 601 mmHg 90%
19:00 +7°C° 0.2 mm 2 mps 601 mmHg 91%
20:00 +6°C° 0 mm 2 mps 601 mmHg 92%
21:00 +6°C° 0 mm 1 mps 601 mmHg 93%
22:00 +5°C° 0 mm 1 mps 601 mmHg 94%
23:00 +4°C° 0 mm 1 mps 600 mmHg 95%

12 July, Sunday

Time Temperature Precipitation Wind Pressure Humidity
00:00 +4°C° 0 mm 1 mps 600 mmHg 95%
01:00 +3°C° 0 mm 1 mps 600 mmHg 95%
02:00 +2°C° 0 mm 1 mps 599 mmHg 94%
03:00 +2°C° 0 mm 1 mps 599 mmHg 93%
04:00 +2°C° 0 mm 1 mps 599 mmHg 92%
05:00 +4°C° 0 mm 1 mps 600 mmHg 86%
06:00 +5°C° 0 mm 0 mps 601 mmHg 80%
07:00 +7°C° 0 mm 0 mps 602 mmHg 74%
08:00 +9°C° 0 mm 0 mps 603 mmHg 64%
09:00 +12°C° 0 mm 1 mps 604 mmHg 54%
10:00 +14°C° 0 mm 1 mps 605 mmHg 45%
11:00 +15°C° 0 mm 1 mps 605 mmHg 42%
12:00 +16°C° 0 mm 1 mps 605 mmHg 40%
13:00 +17°C° 0 mm 2 mps 606 mmHg 38%
14:00 +17°C° 0 mm 2 mps 605 mmHg 40%
15:00 +17°C° 0 mm 2 mps 605 mmHg 42%
16:00 +16°C° 0 mm 2 mps 605 mmHg 44%
17:00 +15°C° 0 mm 2 mps 604 mmHg 55%
18:00 +13°C° 0 mm 2 mps 604 mmHg 66%
19:00 +12°C° 0 mm 1 mps 603 mmHg 76%
20:00 +9°C° 0 mm 1 mps 602 mmHg 82%
21:00 +7°C° 0 mm 1 mps 601 mmHg 88%
22:00 +4°C° 0 mm 0 mps 601 mmHg 94%
23:00 +6°C° 0 mm 1 mps 601 mmHg 94%
Show more